Weather History for Warrenton, VA

Change the Weather History Date:

Thursday, November 27, 2014

  Actual Average (KHEF) Record (KHEF)
Temperature  
Mean Temperature 37 °F -  
Max Temperature 47 °F 52 °F 60 °F (1998)
Min Temperature 27 °F 29 °F 17 °F (2008)
Degree Days  
Heating Degree Days 28    
Moisture  
Dew Point 35 °F    
Average Humidity 92    
Maximum Humidity 100    
Minimum Humidity 66    
Precipitation  
Precipitation 0.00 in - - ()
Sea Level Pressure  
Sea Level Pressure 30.07 in    
Wind  
Wind Speed 2 mph (NW)    
Max Wind Speed 13 mph    
Max Gust Speed 18 mph    
Visibility 8 miles    
Events      
Averages and records for this station are not official NWS values.
T = Trace of Precipitation, MM = Missing Value Source: NWS Daily Summary

Daily Weather History Graph

Daily Weather History Graph

Search for Another Location

Airport:

Trip Planner

Search our weather history database for the weather conditions in past years. The results will help you decide how hot, cold, wet, or windy it might be!

Date:

Astronomy

Nov. 27, 2014 Rise Set
Actual Time 7:05 AM EST 4:51 PM EST
Civil Twilight 6:36 AM EST 5:20 PM EST
Nautical Twilight 6:03 AM EST 5:52 PM EST
Astronomical Twilight 5:31 AM EST 6:24 PM EST
Moon 11:20 AM EST (11/27) 10:27 PM EST (11/27)
Length of Visible Light 10h 43m
Length of Day
9h 45m
Waxing Crescent, 31% of the Moon is Illuminated
Nov 27
Waxing Crescent
Nov 29
First Quarter
Dec 6
Full
Dec 14
Last Quarter
Dec 21
New

Hourly Weather History & Observations

Time (EST) Temp. Windchill Dew Point Humidity Pressure Visibility Wind Dir Wind Speed Gust Speed Precip Events Conditions
12:15 AM 33.1 °F - 33.1 °F 100% 30.02 in 5.0 mi Calm Calm - N/A   Mostly Cloudy
12:35 AM 33.6 °F - 33.6 °F 100% 30.01 in 5.0 mi Calm Calm - N/A   Overcast
12:55 AM 33.8 °F 30.8 °F 33.8 °F 100% 30.00 in 5.0 mi ESE 3.5 mph - N/A   Overcast
1:15 AM 33.4 °F - 33.4 °F 100% 30.00 in 5.0 mi Calm Calm - N/A   Overcast
1:35 AM 33.1 °F - 33.1 °F 100% 30.01 in 5.0 mi Calm Calm - N/A   Overcast
1:55 AM 33.3 °F - 33.3 °F 100% 30.01 in 5.0 mi Calm Calm - N/A   Mostly Cloudy
2:15 AM 33.3 °F - 33.3 °F 100% 30.02 in 5.0 mi Calm Calm - N/A   Scattered Clouds
2:35 AM 33.3 °F - 33.3 °F 100% 30.02 in 4.0 mi Calm Calm - N/A   Mostly Cloudy
2:55 AM 33.1 °F - 33.1 °F 100% 30.01 in 5.0 mi Calm Calm - N/A   Overcast
3:15 AM 32.9 °F - 32.9 °F 100% 30.01 in 5.0 mi Calm Calm - N/A   Mostly Cloudy
3:35 AM 32.7 °F - 32.7 °F 100% 30.02 in 3.0 mi Calm Calm - N/A   Overcast
3:55 AM 33.1 °F - 33.1 °F 100% 30.01 in 4.0 mi Calm Calm - N/A   Overcast
4:15 AM 33.1 °F - 33.1 °F 100% 30.02 in 4.0 mi Calm Calm - N/A   Overcast
4:35 AM 33.3 °F - 33.3 °F 100% 30.02 in 4.0 mi Calm Calm - N/A   Overcast
4:55 AM 33.4 °F - 33.4 °F 100% 30.01 in 4.0 mi Calm Calm - N/A   Overcast
5:15 AM 33.6 °F - 33.6 °F 100% 30.02 in 4.0 mi Calm Calm - N/A   Overcast
5:35 AM 33.8 °F - 33.8 °F 100% 30.02 in 4.0 mi Calm Calm - N/A   Overcast
5:55 AM 33.8 °F - 33.8 °F 100% 30.02 in 4.0 mi Calm Calm - N/A   Overcast
6:15 AM 33.8 °F - 33.8 °F 100% 30.02 in 3.0 mi Calm Calm - N/A   Overcast
6:35 AM 34.2 °F - 34.2 °F 100% 30.02 in 3.0 mi Calm Calm - N/A   Overcast
6:55 AM 34.3 °F - 34.3 °F 100% 30.03 in 4.0 mi Calm Calm - N/A   Overcast
7:15 AM 34.2 °F - 34.2 °F 100% 30.02 in 2.5 mi Calm Calm - N/A   Overcast
7:35 AM 34.7 °F - 34.7 °F 100% 30.03 in 3.0 mi Calm Calm - N/A   Overcast
7:55 AM 35.1 °F - 35.1 °F 100% 30.03 in 3.0 mi Calm Calm - N/A   Overcast
8:15 AM 35.8 °F - 35.8 °F 100% 30.03 in 4.0 mi Calm Calm - N/A   Overcast
8:35 AM 36.5 °F - 36.5 °F 100% 30.04 in 5.0 mi Calm Calm - N/A   Overcast
8:55 AM 37.2 °F 33.6 °F 37.2 °F 100% 30.04 in 7.0 mi North 4.6 mph - N/A   Overcast
9:15 AM 37.8 °F - 37.8 °F 100% 30.05 in 7.0 mi Calm Calm - N/A   Overcast
9:35 AM 38.1 °F - 38.1 °F 100% 30.05 in 10.0 mi Calm Calm - N/A   Light Drizzle
9:55 AM 38.3 °F - 38.3 °F 100% 30.05 in 7.0 mi Calm Calm - N/A   Light Drizzle
10:15 AM 39.2 °F - 39.2 °F 100% 30.06 in 10.0 mi Calm Calm - N/A   Overcast
10:35 AM 39.7 °F - 39.7 °F 100% 30.06 in 10.0 mi Calm Calm - N/A   Light Drizzle
10:55 AM 40.6 °F - 40.6 °F 100% 30.05 in 10.0 mi Calm Calm - N/A   Overcast
11:15 AM 41.7 °F - 40.8 °F 97% 30.05 in 10.0 mi Calm Calm - N/A   Overcast
11:35 AM 42.8 °F - 40.6 °F 92% 30.05 in 10.0 mi Calm Calm - N/A   Mostly Cloudy
11:55 AM 43.0 °F - 41.0 °F 93% 30.05 in 10.0 mi Calm Calm - N/A   Mostly Cloudy
12:15 PM 44.8 °F 42.4 °F 41.4 °F 88% 30.04 in 10.0 mi WNW 4.6 mph - N/A   Overcast
12:35 PM 45.3 °F 41.1 °F 40.8 °F 84% 30.04 in 10.0 mi NW 8.1 mph - N/A   Overcast
12:55 PM 44.4 °F 41.2 °F 38.3 °F 79% 30.04 in 10.0 mi North 5.8 mph - N/A   Overcast
1:15 PM 46.6 °F - 39.2 °F 75% 30.04 in 10.0 mi NNW 10.4 mph - N/A   Mostly Cloudy
1:35 PM 47.3 °F - 37.9 °F 70% 30.04 in 10.0 mi NW 9.2 mph - N/A   Mostly Cloudy
1:55 PM 46.0 °F 41.4 °F 35.2 °F 66% 30.04 in 10.0 mi WNW 9.2 mph - N/A   Mostly Cloudy
2:15 PM 44.8 °F 41.0 °F 35.2 °F 69% 30.04 in 10.0 mi WNW 6.9 mph - N/A   Overcast
2:35 PM 44.1 °F 39.0 °F 34.5 °F 69% 30.05 in 10.0 mi WNW 9.2 mph - N/A   Overcast
2:55 PM 43.9 °F 39.3 °F 35.1 °F 71% 30.05 in 10.0 mi NNW 8.1 mph - N/A   Overcast
3:15 PM 43.3 °F 38.6 °F 34.3 °F 71% 30.06 in 10.0 mi NW 8.1 mph - N/A   Mostly Cloudy
3:35 PM 44.1 °F 38.6 °F 35.8 °F 73% 30.07 in 10.0 mi NNW 10.4 mph - N/A   Mostly Cloudy
3:55 PM 42.8 °F 37.5 °F 34.9 °F 74% 30.08 in 10.0 mi NNW 9.2 mph - N/A   Overcast
4:15 PM 41.9 °F 35.4 °F 35.4 °F 78% 30.08 in 10.0 mi NW 11.5 mph - N/A   Overcast
4:35 PM 41.0 °F 35.8 °F 35.6 °F 81% 30.09 in 10.0 mi NNW 8.1 mph - N/A   Overcast
4:55 PM 39.9 °F 33.4 °F 35.8 °F 85% 30.10 in 10.0 mi NNW 10.4 mph - N/A   Mostly Cloudy
5:15 PM 38.5 °F 33.4 °F 35.1 °F 87% 30.11 in 10.0 mi NW 6.9 mph - N/A   Scattered Clouds
5:35 PM 38.8 °F 35.4 °F 36.0 °F 89% 30.11 in 10.0 mi WNW 4.6 mph - N/A   Mostly Cloudy
5:55 PM 38.5 °F 35.0 °F 35.4 °F 89% 30.12 in 10.0 mi WNW 4.6 mph - N/A   Mostly Cloudy
6:15 PM 36.0 °F 30.3 °F 34.2 °F 93% 30.13 in 10.0 mi WNW 6.9 mph - N/A   Scattered Clouds
6:35 PM 37.4 °F 31.4 °F 34.2 °F 88% 30.13 in 10.0 mi WNW 8.1 mph - N/A   Scattered Clouds
6:55 PM 37.2 °F 32.6 °F 33.4 °F 86% 30.13 in 10.0 mi WNW 5.8 mph - N/A   Scattered Clouds
7:15 PM 36.7 °F - 32.9 °F 86% 30.14 in 10.0 mi Calm Calm - N/A   Clear
7:35 PM 35.2 °F - 32.0 °F 88% 30.15 in 10.0 mi Calm Calm - N/A   Scattered Clouds
7:55 PM 32.0 °F - 32.0 °F 100% 30.15 in 10.0 mi Calm Calm - N/A   Scattered Clouds
8:15 PM 32.4 °F - 31.8 °F 98% 30.15 in 10.0 mi Calm Calm - N/A   Scattered Clouds
8:35 PM 31.5 °F - 31.5 °F 100% 30.16 in 10.0 mi Calm Calm - N/A   Clear
8:55 PM 29.3 °F - 29.3 °F 100% 30.16 in 10.0 mi Calm Calm - N/A   Clear
9:15 PM 29.8 °F - 29.8 °F 100% 30.17 in 10.0 mi Calm Calm - N/A   Clear
9:35 PM 27.9 °F - 27.9 °F 100% 30.17 in 10.0 mi Calm Calm - N/A   Clear
9:55 PM 28.4 °F 24.6 °F 28.4 °F 100% 30.17 in 10.0 mi West 3.5 mph - N/A   Clear
10:15 PM 31.8 °F 28.5 °F 30.7 °F 96% 30.18 in 10.0 mi West 3.5 mph - N/A   Clear
10:35 PM 32.4 °F 27.9 °F 30.4 °F 92% 30.19 in 10.0 mi WNW 4.6 mph - N/A   Scattered Clouds
10:55 PM 34.3 °F 27.7 °F 31.1 °F 88% 30.19 in 10.0 mi NW 8.1 mph - N/A   Clear
11:15 PM 34.9 °F 28.3 °F 30.9 °F 85% 30.19 in 10.0 mi WNW 8.1 mph - N/A   Clear
11:35 PM 34.3 °F 27.0 °F 30.6 °F 86% 30.20 in 10.0 mi WNW 9.2 mph - N/A   Clear
11:55 PM 35.1 °F 26.4 °F 30.2 °F 82% 30.20 in 10.0 mi NW 12.7 mph 18.4 mph N/A   Mostly Cloudy